sat.trackr.live / text

‹ back to catalog

STARLINK-37576

NORAD 69047 · 2026-101Y

PAYLOAD ACTIVE UNKNOWN

§ Identity

Operator
Country
US
Launch date
2026-05-06
Launch site
AFWTR
Launch vehicle
Mass (kg)
RCS (m²)

Purposes: comms

External: N2YO · Heavens-Above · Gunter

§ Orbital elements

Epoch: 2026-09-20T00:56:58.605216Z

Period
93.91 min
Inclination
97.2833°
Eccentricity
0.0000598
Mean motion
15.33463760 rev/d
Perigee alt
465.1 km
Apogee alt
465.9 km
Semi-major
6,843.6 km
B*
5.8419e-4
RAAN
116.6152°
Arg perigee
81.8182°
Mean anomaly
278.3129°
Rev number
2,111

§ Raw data

STARLINK-375761 69047U 26101Y   26263.03956719  .00018843  00000+0  58419-3 0  99982 69047  97.2833 116.6152 0000598  81.8182 278.3129 15.33463760 21117

JSON: /api/v1/satellites/69047 · /tle

For live sub-satellite position, see the globe view (requires WebGL).

§ Visibility from observer

Set your observer location to see the next 7 days of passes ≥ 10°. The values pass through the URL so the page stays shareable.

No JS? Fill the form by hand. The geolocation button needs JavaScript.